Location: Hains Lake
(37.8540°N, 99.8578°W)
Time: 19:11:21
(UTC+00:00)

Vanguard 3 - Pass Details

Date: 18 April 2021
Orbit: 508 x 3262 km, 33.4° (Epoch: 13 May)

Event Time Altitude Azimuth Distance (km) Brightness Sun altitude
Exits shadow 10:24:42 40° 203° (SSW) 751 6.6 -18.1°
Maximum altitude 10:25:12 43° 178° (S) 717 6.6 -18.0°
Drops below altitude 10° 10:28:55 10° 106° (ESE) 1,836 9.6 -17.4°
Sets 10:31:28 0° 99° (E) 2,910 10.9 -17.0°
